Lid_Strength_Index
-1 -1 -1 -1 -1 -2 -2 -1 -1 -1 -1 -1 -2 -2 -1 -2 -2 1 4 1 0 -2 -1 1 2 3 4 5 4 6 12 14 14 13 12 9 9 8 7 9 10 9 7 4 3
-1 -1 -1 -1 -1 -1 -1 -1 -2 -1 -1 -1 -1 -1 -1 -2 1 3 -0 -2 -2 -2 1 3 5 4 7 6 6 9 13 11 10 11 11 9 8 8 8 10 10 7 4 3 5
-1 -1 -0 -1 -1 -2 -2 -1 -1 -1 -1 -1 -1 -1 -2 -1 4 4 -2 -2 -2 -2 1 2 3 4 7 7 7 8 11 9 8 7 7 8 8 8 9 11 10 8 6 5 6
-1 -1 -1 -1 -2 -2 -1 -2 -1 -1 -1 -1 -1 -1 -1 1 11 2 -2 -3 -2 -1 1 3 4 7 8 9 7 10 8 7 7 7 7 7 7 8 9 10 8 5 4 5 6
-1 -1 -1 -2 -2 -1 -1 -1 -1 -1 -1 -1 -1 -1 1 6 5 -0 -2 -2 -0 1 3 4 6 6 9 8 8 9 9 7 7 7 7 7 8 8 10 9 5 4 5 5 6
-1 -1 -1 -1 -1 -1 -1 -1 -1 -1 -0 -1 -1 -1 4 9 2 -0 -0 0 1 2 3 4 5 4 7 8 8 9 7 7 7 7 7 8 8 9 10 7 5 5 6 5 5
-0 -1 -1 -1 -1 -1 -1 -1 -1 -0 -0 -1 -1 2 4 6 2 -0 -0 1 0 2 4 3 3 5 6 8 6 7 9 9 8 7 8 8 10 10 9 7 7 6 6 5 5
-0 -1 -1 -1 -1 -1 -1 -1 -1 -1 -1 -1 -0 3 7 2 1 1 0 1 0 0 2 2 2 5 7 6 7 9 10 13 9 8 8 9 12 10 8 7 8 7 6 6 6
0 -1 -1 -1 -1 -1 -1 -1 -1 -1 -1 -1 3 4 8 1 3 1 2 3 2 2 1 1 3 7 7 11 12 12 14 14 11 8 9 10 12 9 8 7 9 8 7 7 7
0 -0 -1 -1 -1 -1 -1 -1 -1 -1 -0 -0 2 6 5 6 2 1 1 1 4 4 5 5 7 10 10 12 17 14 14 13 13 10 10 11 12 10 9 8 9 9 9 8 8
0 -0 -0 -1 -1 -1 1 2 5 6 5 7 7 6 6 4 2 3 2 3 4 6 10 7 11 14 12 10 10 11 12 13 12 10 10 11 12 11 10 10 10 10 10 9 8
1 0 0 -0 -0 -1 1 6 6 5 8 4 5 5 4 3 6 4 2 7 8 11 8 10 14 10 9 9 10 11 12 13 12 9 10 11 11 11 10 10 10 10 10 9 9
1 1 1 0 0 2 4 4 2 3 9 6 4 5 5 4 7 6 4 6 8 11 10 13 10 8 9 10 11 11 13 13 13 11 11 11 12 12 10 10 10 9 9 10 10
1 1 1 1 3 4 5 2 2 3 13 10 7 5 5 4 8 4 4 6 8 11 10 11 8 9 10 11 10 13 10 10 11 13 16 12 18 13 12 12 11 10 10 10 11
1 1 1 1 5 5 4 3 3 5 22 9 7 3 4 7 7 6 3 6 10 10 10 12 10 10 11 11 10 11 9 10 11 13 15 16 17 14 13 14 12 11 11 10 10
2 1 1 3 4 4 3 3 5 15 23 11 7 8 8 7 7 6 6 5 6 9 9 10 7 8 10 9 9 9 11 11 13 14 19 16 17 16 14 12 13 12 11 10 9
3 1 2 3 6 3 3 6 15 20 11 11 10 9 9 10 9 9 10 11 12 14 14 11 10 8 8 11 10 11 13 20 20 20 19 16 18 15 15 14 13 11 11 10 9
2 3 3 3 4 4 6 12 20 14 13 9 9 9 11 9 9 9 10 12 10 11 14 15 18 10 9 10 13 12 14 18 20 21 20 18 20 16 14 14 11 10 10 10 10
3 6 5 4 3 5 9 17 17 13 10 11 10 12 12 10 11 11 12 12 11 11 14 15 15 9 10 10 11 14 16 14 17 19 21 20 17 13 14 13 12 11 11 11 10
7 6 6 3 4 7 12 13 13 9 9 9 14 13 15 13 12 13 13 11 10 9 10 12 16 11 10 10 11 13 12 16 17 20 21 20 19 18 16 15 12 12 12 11 11
7 9 6 5 5 9 15 15 10 8 9 10 12 12 13 13 12 13 13 10 10 10 10 12 13 14 12 14 14 14 15 16 16 17 20 21 19 15 15 13 13 12 11 11 10
7 11 6 6 11 12 14 11 9 10 8 9 10 11 12 12 13 12 12 11 9 9 12 12 14 17 15 13 13 13 15 15 18 20 20 20 20 14 14 13 12 12 11 11 10
11 10 6 7 14 15 11 10 10 10 10 10 11 10 11 12 13 12 11 9 8 10 12 12 15 19 18 16 14 15 14 15 16 17 20 21 20 15 14 14 13 14 13 11 10
11 13 10 10 11 13 14 13 12 10 10 10 11 11 12 13 11 13 12 10 9 10 7 10 14 16 18 17 15 17 15 15 16 20 19 20 19 17 16 15 14 14 14 13 13
11 13 12 14 13 13 13 13 14 13 11 11 12 12 13 15 14 14 12 12 10 9 11 12 16 17 16 15 15 15 15 15 16 16 19 17 17 17 16 15 14 14 13 13 13
11 12 12 13 12 13 13 14 13 13 13 12 12 12 12 14 14 14 13 14 15 12 14 13 17 17 18 16 16 17 16 15 16 16 16 16 17 14 14 14 14 14 13 13 13
9 10 11 12 14 14 14 14 12 12 11 11 12 13 13 12 12 12 12 12 13 14 14 15 16 18 19 18 17 18 17 16 16 16 15 18 16 14 15 13 14 14 13 13 13